CW9350 Weather Reports


time (UTC)temp
C
wind
direction
speed
KPH
gust
KPH
rain 1hr
cm
rain 24hr
cm
rain mn
cm
humidity
%
barometer
mb
20260505063032 16 144 0.0 0.0 0.00 0.00 0.00 90 996.7
20260505061533 16 144 0.0 0.0 0.00 0.00 0.00 90 996.6
20260505060036 16 144 0.0 0.0 0.00 0.00 0.00 90 996.5
20260505054530 16 144 0.0 0.0 0.00 0.00 0.00 90 996.3
20260505053029 16 144 0.0 0.0 0.00 0.00 0.00 90 996.3
20260505051529 16 144 0.0 0.0 0.00 0.00 0.00 90 995.9
20260505041527 16 144 0.0 0.0 0.00 0.00 0.00 90 994.8
20260505040030 15 144 0.0 0.0 0.00 0.00 0.00 90 994.7
20260505034526 16 144 0.0 0.0 0.00 0.00 0.00 90 994.4
20260505033034 16 144 0.0 0.0 0.00 0.00 0.00 90 994.1
20260505031526 16 144 0.0 0.0 0.00 0.00 0.00 90 993.9
20260505030026 17 144 0.0 0.0 0.00 0.00 0.00 90 993.8
20260505024542 17 144 0.0 0.0 0.00 0.00 0.00 90 993.7
20260505023036 17 144 0.0 0.0 0.00 0.00 0.00 90 993.6
20260505021523 18 145 0.0 0.0 0.00 0.00 0.00 90 993.3
20260505020023 18 145 0.0 0.0 0.00 0.00 0.00 90 993.2
20260505014533 18 145 0.0 0.0 0.00 0.00 0.00 90 993.0
20260505013021 18 145 0.0 0.0 0.00 0.00 0.00 90 993.0
20260505011521 20 145 0.0 0.0 0.00 0.00 0.00 90 993.0
20260505010021 21 145 0.0 0.0 0.00 0.00 0.00 90 992.9
20260505004518 21 145 0.0 0.0 0.00 0.00 0.00 90 993.0
20260505003017 21 145 0.0 0.0 0.00 0.00 0.00 90 993.2
20260505001516 21 145 3.2 0.0 0.00 0.00 0.00 90 993.2
20260505000016 21 145 4.8 0.0 0.00 0.00 0.00 90 993.2
20260504234514 22 145 4.8 0.0 0.00 0.00 0.00 90 992.9
20260504233012 22 145 1.6 0.0 0.00 0.00 0.00 90 993.0
20260504231511 22 145 1.6 0.0 0.00 0.00 0.00 90 993.0
20260504230011 22 145 0.0 0.0 0.00 0.00 0.00 90 993.0
20260504224509 22 145 0.0 0.0 0.00 0.00 0.00 90 993.0
20260504223009 22 145 0.0 0.0 0.00 0.00 0.00 90 993.0
20260504221510 22 145 0.0 0.0 0.00 0.00 0.00 90 993.1
20260504220006 22 145 0.0 0.0 0.00 0.00 0.00 90 993.4
20260504214503 22 145 0.0 0.0 0.00 0.00 0.00 90 993.6
20260504213001 21 145 1.6 0.0 0.00 0.00 0.00 90 994.0
20260504211602 21 145 1.6 0.0 0.00 0.00 0.00 90 994.2
20260504210106 21 145 3.2 0.0 0.00 0.00 0.00 90 994.5
20260504204618 21 145 1.6 0.0 0.00 0.00 0.00 90 994.7
20260504203127 21 145 3.2 0.0 0.00 0.00 0.00 90 994.9
20260504201553 21 145 0.0 0.0 0.00 0.00 0.00 90 995.0
20260504200051 21 145 0.0 0.0 0.00 0.00 0.00 90 995.4
20260504194550 21 145 0.0 0.0 0.00 0.00 0.00 90 995.4
20260504193047 20 145 3.2 0.0 0.00 0.00 0.00 90 995.6
20260504191545 20 145 0.0 0.0 0.00 0.00 0.00 90 995.9
20260504190042 20 145 0.0 0.0 0.00 0.00 0.00 90 996.2
20260504184540 20 145 0.0 0.0 0.00 0.00 0.00 90 996.5
20260504183037 20 145 1.6 0.0 0.00 0.00 0.00 90 996.6
20260504181533 20 145 0.0 0.0 0.00 0.00 0.00 90 997.1
20260504180030 20 145 0.0 0.0 0.00 0.00 0.00 90 997.2
20260504174526 19 145 0.0 0.0 0.00 0.00 0.00 90 997.4
20260504173021 18 145 0.0 0.0 0.00 0.00 0.00 90 997.9
20260504171517 18 145 1.6 0.0 0.00 0.00 0.00 90 997.9
20260504081600 7 145 0.0 0.0 0.00 0.00 0.00 90 998.4